sat.trackr.live / text

‹ back to catalog

STARLINK-36214

NORAD 67129 · 2025-299AD

PAYLOAD ACTIVE UNKNOWN

§ Identity

Operator
Country
US
Launch date
2025-12-15
Launch site
AFETR
Launch vehicle
Mass (kg)
RCS (m²)

Purposes: comms

External: N2YO · Heavens-Above · Gunter

§ Orbital elements

Epoch: 2026-09-19T23:05:15.751104Z

Period
94.27 min
Inclination
43.0018°
Eccentricity
0.0001168
Mean motion
15.27594495 rev/d
Perigee alt
482.2 km
Apogee alt
483.8 km
Semi-major
6,861.1 km
B*
5.6067e-4
RAAN
152.1863°
Arg perigee
275.9198°
Mean anomaly
84.1520°
Rev number
4,282

§ Raw data

STARLINK-362141 67129U 25299AD  26262.96198786  .00015205  00000+0  56067-3 0  99932 67129  43.0018 152.1863 0001168 275.9198  84.1520 15.27594495 42823

JSON: /api/v1/satellites/67129 · /tle

For live sub-satellite position, see the globe view (requires WebGL).

§ Visibility from observer

Set your observer location to see the next 7 days of passes ≥ 10°. The values pass through the URL so the page stays shareable.

No JS? Fill the form by hand. The geolocation button needs JavaScript.